DW8015 Weather Reports


Display with metric or nautical units.
time (UTC)temp
F
wind
direction
speed
MPH
gust
MPH
rain 1hr
in
rain 24hr
in
rain mn
in
humidity
%
barometer
mb
20190624171655 77 253 0.0 1.0 0.00 0.00 0.00 87 1014.3
20190624170152 75 233 0.0 1.0 0.00 0.00 0.00 89 1014.4
20190624164634 75 263 0.0 2.0 0.00 0.00 0.00 91 1014.8
20190624161611 73 64 0.0 3.0 0.00 0.00 0.00 96 1014.6
20190624160208 72 19 0.0 1.0 0.00 0.00 0.00 97 1014.0
20190624154625 70 50 0.0 6.0 0.00 0.00 0.00 97 1012.9
20190624153158 70 190 0.0 2.0 0.00 0.00 0.00 97 1013.7
20190624151559 71 359 0.0 4.0 0.00 0.00 0.00 97 1014.7
20190624150104 71 269 0.0 2.0 0.00 0.00 0.00 97 1014.5
20190624144547 71 292 0.0 5.0 0.00 0.00 0.00 98 1014.7
20190624143108 0 0.0 0.0 0.00 0.00 0.00 1014.4
20190624141604 0 0.0 0.0 0.00 0.00 0.00 1014.7
20190624140112 0 0.0 0.0 0.00 0.00 0.00 1015.1
20190624134631 69 55 0.0 1.0 0.00 0.00 0.00 97 1015.8
20190624133102 69 64 1.0 5.0 0.00 0.00 0.00 97 1015.4
20190624131537 69 46 0.0 6.0 0.00 0.00 0.00 97 1015.5
20190624130032 69 103 0.0 3.0 0.00 0.00 0.00 97 1015.9
20190624124549 69 144 0.0 3.0 0.00 0.00 0.00 97 1016.1
20190624123104 69 112 0.0 3.0 0.00 0.00 0.00 96 1016.1
20190624121524 69 90 0.0 2.0 0.00 0.00 0.00 96 1015.8
20190624120038 69 47 0.0 5.0 0.00 0.00 0.00 96 1015.3
20190624114548 69 205 0.0 5.0 0.00 0.00 0.00 96 1015.2
20190624113033 69 105 0.0 7.0 0.00 0.00 0.00 94 1014.8
20190624111524 70 146 0.0 5.0 0.00 0.00 0.00 93 1014.3
20190624110021 73 132 0.0 3.0 0.00 0.00 0.00 87 1013.5
20190624104507 80 185 0.0 7.0 0.00 0.00 0.00 78 1013.2
20190624103142 83 284 0.0 0.0 0.00 0.00 0.00 91 1011.9
20190624101623 83 284 0.0 0.0 0.00 0.00 0.00 91 1011.5
20190624100204 83 284 0.0 0.0 0.00 0.00 0.00 91 1011.2
20190624094650 83 284 0.0 0.0 0.00 0.00 0.00 91 1010.6
20190624093206 83 284 0.0 0.0 0.00 0.00 0.00 91 1010.6
20190624091659 83 284 0.0 0.0 0.00 0.00 0.00 90 1010.6
20190624090147 84 284 0.0 1.0 0.00 0.00 0.00 90 1010.7
20190624084629 84 284 0.0 0.0 0.00 0.00 0.00 90 1010.7
20190624081717 84 284 0.0 0.0 0.00 0.00 0.00 90 1010.3
20190624080207 84 284 0.0 1.0 0.00 0.00 0.00 91 1010.5
20190624074636 84 284 0.0 0.0 0.00 0.00 0.00 90 1010.7
20190624073058 84 286 0.0 1.0 0.00 0.00 0.00 90 1010.9
20190624071642 84 295 0.0 0.0 0.00 0.00 0.00 90 1010.9
20190624070129 84 297 0.0 0.0 0.00 0.00 0.00 91 1010.8
20190624064722 84 297 0.0 1.0 0.00 0.00 0.00 91 1010.6
20190624063131 84 297 0.0 0.0 0.00 0.00 0.00 91 1010.4
20190624061558 84 297 0.0 1.0 0.00 0.00 0.00 90 1010.3
20190624060132 84 255 0.0 1.0 0.00 0.00 0.00 90 1010.3
20190624054622 84 242 0.0 1.0 0.00 0.00 0.00 89 1010.3
20190624053109 84 240 0.0 1.0 0.00 0.00 0.00 89 1010.6
20190624051547 84 240 0.0 1.0 0.00 0.00 0.00 89 1010.4
20190624050042 84 238 0.0 1.0 0.00 0.00 0.00 89 1010.4
20190624044550 84 223 0.0 1.0 0.00 0.00 0.00 89 1010.5
20190624043047 84 257 0.0 0.0 0.00 0.00 0.00 89 1010.3
20190624041552 85 242 0.0 1.0 0.00 0.00 0.00 88 1010.4
20190624040110 85 205 0.0 1.0 0.00 0.00 0.00 88 1010.4
20190624034556 85 299 0.0 0.0 0.00 0.00 0.00 88 1010.3
20190624033050 85 233 0.0 1.0 0.00 0.00 0.00 88 1010.0
20190624031551 85 291 0.0 1.0 0.00 0.00 0.00 87 1009.9
20190624030108 86 311 0.0 1.0 0.00 0.00 0.00 87 1009.8
20190624024527 86 326 0.0 1.0 0.00 0.00 0.00 86 1009.9
20190624023101 86 253 0.0 2.0 0.00 0.00 0.00 85 1009.8
20190624021605 86 229 0.0 1.0 0.00 0.00 0.00 84 1009.7
20190624020135 86 242 0.0 0.0 0.00 0.00 0.00 84 1009.6
20190624014525 87 311 0.0 1.0 0.00 0.00 0.00 83 1009.5
20190624013035 87 313 0.0 1.0 0.00 0.00 0.00 81 1009.3
20190624011541 87 320 0.0 0.0 0.00 0.00 0.00 80 1009.1
20190624010041 88 303 0.0 0.0 0.00 0.00 0.00 80 1009.2
20190624004608 88 287 0.0 0.0 0.00 0.00 0.00 78 1009.2
20190624003048 89 233 0.0 0.0 0.00 0.00 0.00 77 1009.1
20190624001521 89 223 0.0 0.0 0.00 0.00 0.00 76 1009.2
20190624000025 90 319 0.0 0.0 0.00 0.00 0.00 75 1009.2
20190623234556 90 287 0.0 0.0 0.00 0.00 0.00 76 1009.2
20190623233023 90 321 0.0 0.0 0.00 0.00 0.00 76 1009.4
20190623231534 90 265 0.0 0.0 0.00 0.00 0.00 75 1009.4
20190623230029 91 105 0.0 0.0 0.00 0.00 0.00 74 1009.4
20190623224625 91 224 0.0 0.0 0.00 0.00 0.00 73 1009.4
20190623223135 92 310 0.0 0.0 0.00 0.00 0.00 72 1009.6
20190623221515 92 311 0.0 0.0 0.00 0.00 0.00 71 1009.8
20190623220024 93 313 0.0 3.0 0.00 0.00 0.00 71 1009.9
20190623214525 92 298 0.0 3.0 0.00 0.00 0.00 70 1009.8
20190623213014 93 264 0.0 3.0 0.00 0.00 0.00 68 1009.9
20190623211508 93 344 0.0 4.0 0.00 0.00 0.00 70 1010.0
20190623210129 92 268 0.0 2.0 0.00 0.00 0.00 70 1010.1
20190623204627 93 188 0.0 3.0 0.00 0.00 0.00 69 1010.4
20190623203134 92 269 0.0 5.0 0.00 0.00 0.00 70 1010.4
20190623201620 92 313 0.0 3.0 0.00 0.00 0.00 72 1010.6
20190623200152 93 315 0.0 4.0 0.00 0.00 0.00 69 1010.9
20190623194550 93 355 0.0 4.0 0.00 0.00 0.00 70 1010.7
20190623193115 92 195 0.0 3.0 0.00 0.00 0.00 71 1011.1
20190623191556 92 269 0.0 2.0 0.00 0.00 0.00 71 1011.4
20190623190043 91 301 0.0 2.0 0.00 0.00 0.00 73 1011.4
20190623184641 91 350 0.0 1.0 0.00 0.00 0.00 74 1011.7
20190623183051 92 238 0.0 3.0 0.00 0.00 0.00 71 1011.7
20190623181627 92 215 0.0 2.0 0.00 0.00 0.00 71 1011.9
20190623180042 92 318 0.0 3.0 0.00 0.00 0.00 73 1012.1
20190623174558 90 318 0.0 3.0 0.00 0.00 0.00 75 1012.2
20190623173034 91 261 0.0 2.0 0.00 0.00 0.00 75 1012.4